| time (UTC) | temp F | wind direction | speed MPH | gust MPH | rain 1hr in | rain 24hr in | rain mn in | humidity % | barometer mb |
| 20260902204523 | 85 | 135 | 0.0 | 0.0 | 0.00 | 0.01 | 0.01 | 56 | 1008.7 |
| 20260902203050 | 84 | 157 | 0.0 | 0.0 | 0.00 | 0.01 | 0.01 | 57 | 1008.8 |
| 20260902201548 | 83 | 135 | 0.0 | 0.0 | 0.00 | 0.01 | 0.01 | 57 | 1009.0 |
| 20260902200042 | 83 | 131 | 0.0 | 0.0 | 0.00 | 0.01 | 0.01 | 58 | 1009.2 |
| 20260902194545 | 83 | 74 | 0.0 | 0.0 | 0.00 | 0.01 | 0.01 | 58 | 1009.4 |
| 20260902193040 | 82 | 146 | 0.0 | 0.0 | 0.00 | 0.01 | 0.01 | 59 | 1009.7 |
| 20260902191553 | 82 | 146 | 0.0 | 0.0 | 0.00 | 0.01 | 0.01 | 58 | 1009.9 |
| 20260902190051 | 82 | 137 | 0.0 | 0.0 | 0.00 | 0.01 | 0.01 | 59 | 1010.0 |
| 20260902184532 | 81 | 44 | 0.0 | 0.0 | 0.00 | 0.01 | 0.01 | 61 | 1009.9 |
| 20260902183037 | 80 | 68 | 0.0 | 0.0 | 0.00 | 0.01 | 0.01 | 62 | 1010.1 |
| 20260902181531 | 80 | 5 | 0.0 | 0.0 | 0.00 | 0.01 | 0.01 | 62 | 1010.0 |
| 20260902180034 | 80 | 96 | 0.0 | 0.0 | 0.00 | 0.01 | 0.01 | 61 | 1010.1 |
| 20260902174525 | 79 | 139 | 0.0 | 0.0 | 0.00 | 0.01 | 0.01 | 62 | 1010.2 |
| 20260902173033 | 79 | 86 | 0.0 | 0.0 | 0.00 | 0.01 | 0.01 | 64 | 1010.5 |
| 20260902171521 | 79 | 88 | 0.0 | 0.0 | 0.00 | 0.01 | 0.01 | 66 | 1010.8 |
| 20260902170017 | 78 | 135 | 0.0 | 0.0 | 0.00 | 0.01 | 0.01 | 67 | 1011.1 |
| 20260902164514 | 77 | 140 | 0.0 | 0.0 | 0.00 | 0.01 | 0.01 | 68 | 1011.3 |
| 20260902163012 | 76 | 140 | 0.0 | 0.0 | 0.00 | 0.01 | 0.01 | 68 | 1010.8 |
| 20260902161521 | 75 | 144 | 0.0 | 0.0 | 0.00 | 0.01 | 0.01 | 70 | 1010.7 |
| 20260902160043 | 76 | 136 | 0.0 | 0.0 | 0.00 | 0.01 | 0.01 | 69 | 1010.8 |
| 20260902154538 | 75 | 117 | 0.0 | 0.0 | 0.00 | 0.01 | 0.01 | 71 | 1010.8 |
| 20260902153033 | 74 | 169 | 0.0 | 0.0 | 0.00 | 0.01 | 0.01 | 71 | 1010.3 |
| 20260902151534 | 74 | 92 | 0.0 | 0.0 | 0.00 | 0.01 | 0.01 | 74 | 1010.4 |
| 20260902150028 | 73 | 82 | 0.0 | 0.0 | 0.00 | 0.01 | 0.01 | 74 | 1010.4 |
| 20260902144530 | 72 | 123 | 0.0 | 0.0 | 0.00 | 0.01 | 0.01 | 76 | 1010.3 |
| 20260902143021 | 72 | 123 | 0.0 | 0.0 | 0.00 | 0.01 | 0.01 | 77 | 1010.6 |
| 20260902141525 | 71 | 123 | 0.0 | 0.0 | 0.00 | 0.01 | 0.01 | 79 | 1010.8 |
| 20260902140018 | 70 | 105 | 0.0 | 0.0 | 0.00 | 0.01 | 0.01 | 81 | 1010.9 |
| 20260902134523 | 70 | 92 | 0.0 | 0.0 | 0.00 | 0.01 | 0.01 | 82 | 1010.8 |
| 20260902133020 | 69 | 141 | 0.0 | 0.0 | 0.00 | 0.01 | 0.01 | 84 | 1010.9 |
| 20260902131513 | 68 | 81 | 0.0 | 0.0 | 0.00 | 0.01 | 0.01 | 86 | 1010.7 |
| 20260902130014 | 67 | 88 | 0.0 | 0.0 | 0.00 | 0.01 | 0.01 | 88 | 1010.7 |
| 20260902124513 | 66 | 101 | 0.0 | 0.0 | 0.00 | 0.01 | 0.01 | 90 | 1010.8 |
| 20260902123042 | 66 | 78 | 0.0 | 0.0 | 0.00 | 0.01 | 0.01 | 90 | 1010.8 |
| 20260902121541 | 66 | 119 | 0.0 | 0.0 | 0.00 | 0.01 | 0.01 | 89 | 1010.9 |
| 20260902120040 | 65 | 119 | 0.0 | 0.0 | 0.00 | 0.01 | 0.01 | 89 | 1010.6 |
| 20260902114538 | 66 | 134 | 0.0 | 0.0 | 0.00 | 0.01 | 0.01 | 89 | 1010.4 |
| 20260902113037 | 66 | 134 | 0.0 | 0.0 | 0.00 | 0.01 | 0.01 | 89 | 1010.6 |
| 20260902111536 | 66 | 174 | 0.0 | 0.0 | 0.00 | 0.01 | 0.01 | 88 | 1011.0 |
| 20260902110037 | 66 | 160 | 0.0 | 0.0 | 0.00 | 0.01 | 0.01 | 87 | 1010.7 |
| 20260902104508 | 65 | 202 | 0.0 | 0.0 | 0.00 | 0.01 | 0.01 | 86 | 1011.1 |
| 20260902103004 | 65 | 203 | 0.0 | 0.0 | 0.00 | 0.01 | 0.01 | 85 | 1011.1 |
| 20260902101600 | 66 | 203 | 0.0 | 0.0 | 0.00 | 0.01 | 0.01 | 84 | 1011.8 |
| 20260902100059 | 66 | 207 | 0.0 | 0.0 | 0.00 | 0.01 | 0.01 | 83 | 1011.4 |
| 20260902094557 | 67 | 228 | 0.0 | 0.0 | 0.00 | 0.01 | 0.01 | 81 | 1011.4 |
| 20260902093053 | 67 | 166 | 0.0 | 0.0 | 0.00 | 0.01 | 0.01 | 79 | 1011.1 |
| 20260902091552 | 68 | 179 | 0.0 | 0.0 | 0.00 | 0.01 | 0.01 | 79 | 1010.1 |
| 20260902090050 | 68 | 44 | 0.0 | 0.0 | 0.00 | 0.01 | 0.01 | 79 | 1009.2 |
| 20260902084549 | 68 | 26 | 0.0 | 0.0 | 0.00 | 0.01 | 0.01 | 79 | 1009.3 |
| 20260902083046 | 68 | 99 | 0.0 | 0.0 | 0.00 | 0.01 | 0.01 | 79 | 1009.5 |
| 20260902081513 | 68 | 61 | 0.0 | 0.0 | 0.00 | 0.01 | 0.01 | 82 | 1009.8 |
| 20260902080012 | 69 | 109 | 0.0 | 0.0 | 0.00 | 0.01 | 0.01 | 84 | 1010.6 |
| 20260902074508 | 69 | 78 | 0.0 | 0.0 | 0.00 | 0.01 | 0.01 | 85 | 1010.1 |
| 20260902073008 | 69 | 100 | 0.0 | 0.0 | 0.01 | 0.01 | 0.01 | 85 | 1010.4 |
| 20260902071507 | 69 | 40 | 0.0 | 0.0 | 0.01 | 0.01 | 0.01 | 83 | 1009.8 |
| 20260902070004 | 70 | 92 | 0.0 | 0.0 | 0.01 | 0.01 | 0.01 | 82 | 1010.8 |
| 20260902064600 | 70 | 141 | 0.0 | 0.0 | 0.01 | 0.01 | 0.01 | 81 | 1011.7 |
| 20260902063114 | 70 | 124 | 0.0 | 0.0 | 0.00 | 0.00 | 0.00 | 79 | 1012.0 |
| 20260902061557 | 70 | 5 | 0.0 | 0.0 | 0.00 | 0.00 | 0.00 | 77 | 1011.9 |
| 20260902060107 | 70 | 5 | 0.0 | 0.0 | 0.00 | 0.00 | 0.00 | 76 | 1011.6 |
| 20260902054524 | 71 | 5 | 0.0 | 0.0 | 0.00 | 0.00 | 0.00 | 75 | 1010.8 |
| 20260902053028 | 71 | 5 | 0.0 | 0.0 | 0.00 | 0.00 | 0.00 | 77 | 1011.0 |
| 20260902051528 | 71 | 5 | 0.0 | 0.0 | 0.00 | 0.00 | 0.00 | 76 | 1011.0 |
| 20260902050016 | 71 | 5 | 0.0 | 0.0 | 0.00 | 0.00 | 0.00 | 73 | 1011.6 |
| 20260902044515 | 72 | 5 | 0.0 | 0.0 | 0.00 | 0.00 | 0.00 | 72 | 1011.7 |
| 20260902043014 | 72 | 5 | 0.0 | 0.0 | 0.00 | 0.00 | 0.00 | 73 | 1011.1 |
| 20260902041559 | 72 | 5 | 0.0 | 0.0 | 0.00 | 0.00 | 0.00 | 72 | 1010.6 |
| 20260902040043 | 72 | 5 | 0.0 | 0.0 | 0.00 | 0.00 | 0.00 | 70 | 1010.7 |
| 20260902034548 | 73 | 355 | 0.0 | 0.0 | 0.00 | 0.00 | 0.00 | 70 | 1010.6 |
| 20260902033041 | 73 | 344 | 0.0 | 0.0 | 0.00 | 0.00 | 0.00 | 69 | 1010.7 |
| 20260902031541 | 73 | 323 | 0.0 | 0.0 | 0.00 | 0.00 | 0.00 | 69 | 1011.2 |
| 20260902030041 | 73 | 324 | 0.0 | 0.0 | 0.00 | 0.00 | 0.00 | 68 | 1011.4 |
| 20260902024509 | 74 | 324 | 0.0 | 0.0 | 0.00 | 0.00 | 0.00 | 67 | 1011.3 |
| 20260902023008 | 74 | 324 | 0.0 | 0.0 | 0.00 | 0.00 | 0.00 | 70 | 1011.0 |
| 20260902021507 | 75 | 323 | 0.0 | 0.0 | 0.00 | 0.00 | 0.00 | 68 | 1011.0 |
| 20260902020006 | 76 | 307 | 0.0 | 0.0 | 0.00 | 0.00 | 0.00 | 65 | 1011.0 |
| 20260902014512 | 76 | 296 | 0.0 | 0.0 | 0.00 | 0.00 | 0.00 | 66 | 1011.1 |
| 20260902013004 | 76 | 290 | 0.0 | 0.0 | 0.00 | 0.00 | 0.00 | 66 | 1011.0 |
| 20260902011504 | 76 | 290 | 0.0 | 0.0 | 0.00 | 0.00 | 0.00 | 66 | 1010.9 |
| 20260902010002 | 76 | 290 | 0.0 | 0.0 | 0.00 | 0.00 | 0.00 | 65 | 1010.9 |
| 20260902004603 | 77 | 288 | 0.0 | 0.0 | 0.00 | 0.00 | 0.00 | 66 | 1010.8 |
| 20260902004501 | 77 | 289 | 0.0 | 0.0 | 0.00 | 0.00 | 0.00 | 66 | 1010.9 |
| 20260902003133 | 78 | 289 | 0.0 | 0.0 | 0.00 | 0.00 | 0.00 | 64 | 1010.9 |
| 20260902001559 | 78 | 289 | 0.0 | 0.0 | 0.00 | 0.00 | 0.00 | 62 | 1010.8 |
| 20260902000100 | 79 | 289 | 0.0 | 0.0 | 0.00 | 0.00 | 0.00 | 60 | 1010.8 |
| 20260901234556 | 79 | 286 | 0.0 | 0.0 | 0.00 | 0.00 | 0.00 | 59 | 1011.0 |
| 20260901233056 | 79 | 285 | 0.0 | 0.0 | 0.00 | 0.00 | 0.00 | 59 | 1011.0 |
| 20260901231600 | 80 | 282 | 0.0 | 0.0 | 0.00 | 0.00 | 0.00 | 58 | 1011.1 |
| 20260901230053 | 80 | 281 | 0.0 | 0.0 | 0.00 | 0.00 | 0.00 | 58 | 1011.1 |
| 20260901224552 | 81 | 280 | 0.0 | 0.0 | 0.00 | 0.00 | 0.00 | 58 | 1011.1 |
| 20260901223051 | 82 | 280 | 0.0 | 0.0 | 0.00 | 0.00 | 0.00 | 54 | 1011.0 |
| 20260901221548 | 82 | 280 | 0.0 | 0.0 | 0.00 | 0.00 | 0.00 | 53 | 1010.9 |
| 20260901220048 | 82 | 277 | 0.0 | 0.0 | 0.00 | 0.00 | 0.00 | 55 | 1010.9 |
| 20260901214546 | 83 | 265 | 0.0 | 0.0 | 0.00 | 0.00 | 0.00 | 52 | 1011.0 |
| 20260901213046 | 83 | 263 | 0.0 | 0.0 | 0.00 | 0.00 | 0.00 | 49 | 1011.0 |
| 20260901211546 | 83 | 271 | 0.0 | 0.0 | 0.00 | 0.00 | 0.00 | 47 | 1010.8 |
| 20260901210015 | 83 | 278 | 0.0 | 0.0 | 0.00 | 0.00 | 0.00 | 49 | 1010.9 |